EN

Hourly Weather Bolshie Staryshi

Today, 23 October, Friday

Time Temperature Precipitation Wind Pressure Humidity
00:00 +10°C° 0 mm 7 mps 741 mmHg 89%
01:00 +10°C° 0 mm 6 mps 741 mmHg 90%
02:00 +9°C° 0 mm 6 mps 742 mmHg 90%
03:00 +9°C° 0 mm 6 mps 742 mmHg 92%
04:00 +9°C° 0 mm 5 mps 741 mmHg 93%
05:00 +8°C° 0 mm 5 mps 741 mmHg 95%
06:00 +8°C° 0 mm 5 mps 741 mmHg 95%
07:00 +9°C° 0 mm 5 mps 741 mmHg 95%
08:00 +9°C° 0 mm 5 mps 741 mmHg 95%
09:00 +10°C° 0 mm 5 mps 741 mmHg 91%
10:00 +12°C° 0 mm 5 mps 741 mmHg 87%
11:00 +13°C° 0 mm 5 mps 741 mmHg 83%
12:00 +13°C° 0.2 mm 6 mps 740 mmHg 83%
13:00 +13°C° 0.2 mm 6 mps 740 mmHg 84%
14:00 +13°C° 0.2 mm 6 mps 739 mmHg 84%
15:00 +11°C° 1.5 mm 6 mps 739 mmHg 87%
16:00 +11°C° 1.5 mm 6 mps 739 mmHg 89%
17:00 +11°C° 1.5 mm 6 mps 739 mmHg 92%
18:00 +11°C° 0 mm 6 mps 739 mmHg 92%
19:00 +10°C° 0 mm 5 mps 739 mmHg 93%
20:00 +10°C° 0 mm 5 mps 739 mmHg 93%
21:00 +9°C° 0 mm 5 mps 739 mmHg 93%
22:00 +10°C° 0 mm 4 mps 739 mmHg 94%
23:00 +10°C° 0 mm 4 mps 739 mmHg 94%

Tomorrow, 24 October, Saturday

Time Temperature Precipitation Wind Pressure Humidity
00:00 +8°C° 0 mm 4 mps 740 mmHg 94%
01:00 +8°C° 0 mm 4 mps 740 mmHg 95%
02:00 +8°C° 0 mm 3 mps 740 mmHg 95%
03:00 +8°C° 0 mm 3 mps 740 mmHg 95%
04:00 +7°C° 0 mm 3 mps 740 mmHg 96%
05:00 +7°C° 0 mm 2 mps 740 mmHg 96%
06:00 +7°C° 0 mm 2 mps 741 mmHg 95%
07:00 +7°C° 0 mm 2 mps 741 mmHg 95%
08:00 +8°C° 0 mm 3 mps 741 mmHg 94%
09:00 +9°C° 0 mm 3 mps 741 mmHg 90%
10:00 +9°C° 0 mm 3 mps 741 mmHg 86%
11:00 +10°C° 0 mm 3 mps 741 mmHg 83%
12:00 +11°C° 0 mm 3 mps 741 mmHg 81%
13:00 +11°C° 0 mm 3 mps 741 mmHg 79%
14:00 +11°C° 0 mm 3 mps 741 mmHg 78%
15:00 +10°C° 0 mm 3 mps 741 mmHg 81%
16:00 +10°C° 0 mm 2 mps 741 mmHg 85%
17:00 +9°C° 0 mm 2 mps 741 mmHg 89%
18:00 +9°C° 0.6 mm 2 mps 741 mmHg 91%
19:00 +9°C° 0.6 mm 2 mps 741 mmHg 93%
20:00 +9°C° 0.6 mm 2 mps 741 mmHg 95%
21:00 +8°C° 0.4 mm 2 mps 741 mmHg 95%
22:00 +8°C° 0.4 mm 2 mps 741 mmHg 95%
23:00 +9°C° 0.4 mm 1 mps 741 mmHg 95%

Day after tomorrow, 25 October, Sunday

Time Temperature Precipitation Wind Pressure Humidity
00:00 +8°C° 0.1 mm 2 mps 741 mmHg 95%
01:00 +7°C° 0.1 mm 3 mps 741 mmHg 95%
02:00 +7°C° 0.1 mm 3 mps 741 mmHg 95%
03:00 +7°C° 0.2 mm 3 mps 741 mmHg 94%
04:00 +7°C° 0.2 mm 4 mps 742 mmHg 93%
05:00 +7°C° 0.2 mm 4 mps 742 mmHg 92%
06:00 +7°C° 0 mm 4 mps 742 mmHg 91%
07:00 +7°C° 0 mm 4 mps 743 mmHg 89%
08:00 +7°C° 0 mm 4 mps 743 mmHg 87%
09:00 +8°C° 0 mm 4 mps 744 mmHg 83%
10:00 +8°C° 0 mm 5 mps 744 mmHg 80%
11:00 +9°C° 0 mm 5 mps 745 mmHg 76%
12:00 +9°C° 0 mm 5 mps 745 mmHg 76%
13:00 +11°C° 0 mm 4 mps 746 mmHg 75%
14:00 +11°C° 0 mm 4 mps 746 mmHg 74%
15:00 +10°C° 0 mm 4 mps 746 mmHg 76%
16:00 +10°C° 0 mm 3 mps 747 mmHg 78%
17:00 +9°C° 0 mm 2 mps 747 mmHg 80%
18:00 +9°C° 0 mm 2 mps 747 mmHg 81%
19:00 +9°C° 0 mm 2 mps 748 mmHg 83%
20:00 +10°C° 0 mm 1 mps 748 mmHg 84%
21:00 +9°C° 0 mm 1 mps 748 mmHg 85%
22:00 +9°C° 0 mm 1 mps 749 mmHg 85%
23:00 +9°C° 0 mm 1 mps 749 mmHg 86%

, 26 October, Monday

Time Temperature Precipitation Wind Pressure Humidity
00:00 +9°C° 0 mm 1 mps 749 mmHg 86%
01:00 +9°C° 0 mm 1 mps 749 mmHg 86%
02:00 +9°C° 0 mm 1 mps 749 mmHg 86%
03:00 +8°C° 0 mm 1 mps 750 mmHg 86%
04:00 +7°C° 0 mm 2 mps 750 mmHg 86%
05:00 +7°C° 0 mm 2 mps 750 mmHg 86%
06:00 +7°C° 0 mm 2 mps 750 mmHg 85%
07:00 +7°C° 0 mm 2 mps 750 mmHg 85%
08:00 +7°C° 0 mm 3 mps 750 mmHg 84%
09:00 +8°C° 0 mm 3 mps 751 mmHg 82%
10:00 +8°C° 0 mm 3 mps 751 mmHg 79%
11:00 +9°C° 0 mm 3 mps 751 mmHg 76%
12:00 +9°C° 0 mm 3 mps 751 mmHg 75%
13:00 +10°C° 0 mm 3 mps 751 mmHg 73%
14:00 +10°C° 0 mm 3 mps 750 mmHg 72%
15:00 +9°C° 0 mm 3 mps 750 mmHg 77%
16:00 +8°C° 0 mm 3 mps 750 mmHg 82%
17:00 +7°C° 0 mm 3 mps 750 mmHg 87%
18:00 +7°C° 0 mm 3 mps 750 mmHg 89%
19:00 +5°C° 0 mm 3 mps 750 mmHg 90%
20:00 +5°C° 0 mm 4 mps 750 mmHg 91%
21:00 +4°C° 0 mm 4 mps 750 mmHg 91%
22:00 +4°C° 0 mm 4 mps 750 mmHg 90%
23:00 +4°C° 0 mm 4 mps 750 mmHg 90%

26 October, Monday

Time Temperature Precipitation Wind Pressure Humidity
00:00 +9°C° 0 mm 1 mps 749 mmHg 86%
01:00 +9°C° 0 mm 1 mps 749 mmHg 86%
02:00 +9°C° 0 mm 1 mps 749 mmHg 86%
03:00 +8°C° 0 mm 1 mps 750 mmHg 86%
04:00 +7°C° 0 mm 2 mps 750 mmHg 86%
05:00 +7°C° 0 mm 2 mps 750 mmHg 86%
06:00 +7°C° 0 mm 2 mps 750 mmHg 85%
07:00 +7°C° 0 mm 2 mps 750 mmHg 85%
08:00 +7°C° 0 mm 3 mps 750 mmHg 84%
09:00 +8°C° 0 mm 3 mps 751 mmHg 82%
10:00 +8°C° 0 mm 3 mps 751 mmHg 79%
11:00 +9°C° 0 mm 3 mps 751 mmHg 76%
12:00 +9°C° 0 mm 3 mps 751 mmHg 75%
13:00 +10°C° 0 mm 3 mps 751 mmHg 73%
14:00 +10°C° 0 mm 3 mps 750 mmHg 72%
15:00 +9°C° 0 mm 3 mps 750 mmHg 77%
16:00 +8°C° 0 mm 3 mps 750 mmHg 82%
17:00 +7°C° 0 mm 3 mps 750 mmHg 87%
18:00 +7°C° 0 mm 3 mps 750 mmHg 89%
19:00 +5°C° 0 mm 3 mps 750 mmHg 90%
20:00 +5°C° 0 mm 4 mps 750 mmHg 91%
21:00 +4°C° 0 mm 4 mps 750 mmHg 91%
22:00 +4°C° 0 mm 4 mps 750 mmHg 90%
23:00 +4°C° 0 mm 4 mps 750 mmHg 90%

27 October, Tuesday

Time Temperature Precipitation Wind Pressure Humidity
00:00 +4°C° 0 mm 4 mps 750 mmHg 90%
01:00 +4°C° 0 mm 4 mps 750 mmHg 89%
02:00 +4°C° 0 mm 4 mps 750 mmHg 89%
03:00 +4°C° 0 mm 4 mps 749 mmHg 88%
04:00 +4°C° 0 mm 4 mps 749 mmHg 87%
05:00 +4°C° 0 mm 4 mps 749 mmHg 86%
06:00 +5°C° 0 mm 5 mps 749 mmHg 85%
07:00 +5°C° 0 mm 5 mps 749 mmHg 84%
08:00 +5°C° 0 mm 5 mps 749 mmHg 83%
09:00 +6°C° 0 mm 5 mps 749 mmHg 82%
10:00 +6°C° 0 mm 5 mps 749 mmHg 81%
11:00 +7°C° 0 mm 5 mps 749 mmHg 80%
12:00 +6°C° 0.1 mm 5 mps 749 mmHg 82%
13:00 +6°C° 0.1 mm 5 mps 749 mmHg 83%
14:00 +6°C° 0.1 mm 5 mps 749 mmHg 85%
15:00 +6°C° 0 mm 5 mps 749 mmHg 84%
16:00 +6°C° 0 mm 5 mps 749 mmHg 83%
17:00 +7°C° 0 mm 5 mps 748 mmHg 83%
18:00 +7°C° 0 mm 5 mps 748 mmHg 83%
19:00 +7°C° 0 mm 5 mps 748 mmHg 83%
20:00 +7°C° 0 mm 5 mps 748 mmHg 83%
21:00 +6°C° 0 mm 4 mps 748 mmHg 84%
22:00 +6°C° 0 mm 4 mps 748 mmHg 86%
23:00 +6°C° 0 mm 4 mps 748 mmHg 87%

28 October, Wednesday

Time Temperature Precipitation Wind Pressure Humidity
00:00 +5°C° 0 mm 3 mps 748 mmHg 88%
01:00 +5°C° 0 mm 3 mps 748 mmHg 88%
02:00 +5°C° 0 mm 3 mps 748 mmHg 89%
03:00 +5°C° 0 mm 3 mps 748 mmHg 89%
04:00 +5°C° 0 mm 3 mps 748 mmHg 88%
05:00 +5°C° 0 mm 3 mps 748 mmHg 88%
06:00 +5°C° 0 mm 3 mps 748 mmHg 86%
07:00 +7°C° 0 mm 3 mps 748 mmHg 84%
08:00 +7°C° 0 mm 3 mps 748 mmHg 83%
09:00 +8°C° 0 mm 3 mps 748 mmHg 81%
10:00 +8°C° 0 mm 4 mps 748 mmHg 78%
11:00 +8°C° 0 mm 4 mps 747 mmHg 76%
12:00 +10°C° 0 mm 4 mps 747 mmHg 75%
13:00 +11°C° 0 mm 3 mps 747 mmHg 75%
14:00 +11°C° 0 mm 3 mps 747 mmHg 74%
15:00 +10°C° 0 mm 3 mps 747 mmHg 78%
16:00 +9°C° 0 mm 3 mps 747 mmHg 81%
17:00 +8°C° 0 mm 3 mps 747 mmHg 85%
18:00 +8°C° 0 mm 3 mps 747 mmHg 87%
19:00 +7°C° 0 mm 2 mps 747 mmHg 88%
20:00 +7°C° 0 mm 2 mps 747 mmHg 89%
21:00 +7°C° 0 mm 2 mps 747 mmHg 89%
22:00 +7°C° 0 mm 2 mps 747 mmHg 90%
23:00 +6°C° 0 mm 2 mps 747 mmHg 90%
Show more